Regional Weather Roundup
Issued by NWS

Home | Current Version | Previous Version | Graphics & Text | Print | Product List | Glossary On
Versions: 1 2 3 4 5 6 7 8 9 10 11 12 13 14 15 16 17 18 19 20 21 22 23 24 25 26 27 28 29 30 31 32 33 34 35 36 37 38 39 40 41 42 43 44 45 46 47 48 49 50
000
ASUS43 KFSD 251302
RWRSD

WEATHER ROUNDUP FOR SOUTH DAKOTA
NATIONAL WEATHER SERVICE SIOUX FALLS SD
800 AM CDT SUN JUN 25 2017

NOTE: "FAIR" INDICATES FEW OR NO CLOUDS BELOW 12,000 FEET WITH NO
SIGNIFICANT WEATHER AND/OR OBSTRUCTIONS TO VISIBILITY.


SDZ001>005-009-010-012>017-251400-
NORTHWEST AND NORTH CENTRAL SOUTH DAKOTA

CITY           SKY/WX    TMP DP  RH WIND       PRES   REMARKS
BUFFALO          N/A     52  34  50 CALM      30.26S
FAITH            N/A     52  37  56 SW12      30.32S
MOBRIDGE       SUNNY     52  43  71 NW3       30.29R
$$

SDZ012>016-024>037-041>051-057-063-072>074-251400-
SOUTHWEST AND SOUTH CENTRAL SOUTH DAKOTA

CITY           SKY/WX    TMP DP  RH WIND       PRES   REMARKS
RAPID CTY ARPT SUNNY     52  33  48 SW6       30.35S
PIERRE         NOT AVBL
CUSTER         SUNNY     46  29  51 NW3       30.40S
ELLSWORTH AFB  MOSUNNY   54  33  43 S7        30.34S
PHILIP         MOSUNNY   47  38  71 CALM      30.35S
PINE RIDGE     SUNNY     57  41  55 CALM      30.35F
SPEARFISH      FAIR      54  37  54 CALM      30.35S
WINNER         FAIR      53  41  63 W3        30.35S
$$

SDZ004>011-016>023-039-040-251400-
NORTHEAST SOUTH DAKOTA

CITY           SKY/WX    TMP DP  RH WIND       PRES   REMARKS
ABERDEEN       SUNNY     53  42  66 NW5       30.30R
WATERTOWN      SUNNY     53  47  79 NW12      30.26S
BROOKINGS      SUNNY     54  47  77 NW12      30.28R
SISSETON         N/A     56  47  71 NW17      30.25R
$$

SDZ017-020-022-023-036>040-048>070-251400-
SOUTHEAST SOUTH DAKOTA

CITY           SKY/WX    TMP DP  RH WIND       PRES   REMARKS
SIOUX FALLS    SUNNY     55  48  77 W8        30.29S
HURON          SUNNY     53  45  74 NW12      30.32R
CHAMBERLAIN    SUNNY     52  43  72 SW5       30.34S
YANKTON        SUNNY     56  45  66 NW10      30.32S
$$

ABBREVIATIONS USED IN REMARKS
   TC - TEMPERATURE IN CELSIUS
  WCI - WIND CHILL INDEX
   HX - HEAT INDEX
  VSB - VISIBILITY





USA.gov is the U.S. government's official web portal to all federal, state and local government web resources and services.